This demonstration page uses our WeatherBlox Daily Observations layout. Learn more.

Left ArrowRight Arrow

40.92945, -100.16068

Hourly Observations for June 20, 2016

Temp ( °F °C ) Dew Point ( °F °C ) Humidity (%) Winds ( mph kmh ) Pressure ( in mb ) Visibility ( mi km ) Precip ( " mm )
12:15 am 00:15 Clear 78 25.7 67 19.6 69 69 S 8 13 29.94 1014 10 16 N/A
12:35 am 00:35 Clear 77 25.2 68 19.8 72 72 S 9 15 29.94 1014 10 16 N/A
12:55 am 00:55 Clear 77 25.2 68 19.8 72 72 S 9 15 29.97 1015 10 16 N/A
1:15 am 01:15 Clear 78 25.5 67 19.6 70 70 S 9 15 29.97 1015 10 16 N/A
1:35 am 01:35 Clear 78 25.4 67 19.6 70 70 S 9 15 29.97 1015 10 16 N/A
1:55 am 01:55 Clear 78 25.5 67 19.5 70 70 SSW 10 17 29.97 1015 10 16 N/A
2:15 am 02:15 Clear 77 25.2 67 19.6 71 71 S 8 13 29.97 1015 10 16 N/A
2:35 am 02:35 Clear 76 24.7 67 19.5 73 73 S 8 13 29.97 1015 10 16 N/A
2:55 am 02:55 Clear 76 24.6 67 19.5 73 73 SSW 3 6 29.97 1015 10 16 N/A
3:15 am 03:15 Clear 77 24.8 67 19.5 72 72 SSW 5 7 29.97 1015 10 16 N/A
3:35 am 03:35 Clear 75 23.9 67 19.6 77 77 N N/A 30.03 1017 10 16 N/A
3:55 am 03:55 Clear 74 23.4 67 19.6 79 79 N N/A 30.03 1017 10 16 N/A
4:15 am 04:15 Clear 74 23.5 67 19.5 78 78 N N/A 30.03 1017 10 16 N/A
4:35 am 04:35 Clear 74 23.1 67 19.5 80 80 N N/A 30.00 1016 10 16 N/A
4:55 am 04:55 Clear 72 22.1 67 19.3 84 84 N N/A 30.00 1016 10 16 N/A
5:15 am 05:15 Clear 71 21.7 67 19.5 87 87 ENE 5 7 30.03 1017 10 16 N/A
5:35 am 05:35 Clear 71 21.5 67 19.6 89 89 ENE 5 7 30.03 1017 10 16 N/A
5:55 am 05:55 Clear 70 21.3 67 19.5 90 90 N N/A 30.03 1017 7 11 N/A
6:15 am 06:15 Sunny with Mist and Fog 70 21 67 19.5 91 91 E 5 7 30.06 1018 5 8 N/A
6:35 am 06:35 Sunny with Mist and Fog 70 21.1 67 19.6 91 91 NE 6 9 30.09 1019 5 8 N/A
6:55 am 06:55 Sunny with Mist and Fog 71 21.6 68 20 91 91 E 3 6 30.06 1018 5 8 N/A
7:15 am 07:15 Sunny 72 22.2 69 20.4 90 90 ENE 3 6 30.06 1018 7 11 N/A
7:35 am 07:35 Hazy 73 22.6 68 20.1 86 86 NNE 10 17 30.06 1018 5 8 N/A
7:55 am 07:55 Sunny 74 23.1 68 20 83 83 NE 14 22 30.09 1019 10 16 N/A
8:15 am 08:15 Sunny 74 23.1 63 17.2 70 70 NE 18 30 30.09 1019 10 16 N/A
8:35 am 08:35 Sunny 73 23 58 14.2 58 58 NE 16 26 30.09 1019 10 16 N/A
8:55 am 08:55 Sunny 74 23.1 56 13.4 55 55 NE 20 31 30.12 1020 10 16 N/A
9:15 am 09:15 Sunny 74 23.4 55 13 52 52 NE 18 30 30.12 1020 10 16 N/A
9:35 am 09:35 Sunny 75 23.7 55 12.8 51 51 NE 15 24 30.12 1020 10 16 N/A
9:55 am 09:55 Sunny 75 24 55 12.9 50 50 NE 18 30 30.12 1020 10 16 N/A
10:15 am 10:15 Mostly Cloudy 75 23.7 54 12.4 49 49 NE 20 31 30.12 1020 10 16 N/A
10:35 am 10:35 Cloudy 76 24.2 55 13 50 50 NE 20 31 30.15 1021 10 16 N/A
10:55 am 10:55 Cloudy 75 24 56 13.3 51 51 NE 17 28 30.15 1021 10 16 N/A
11:15 am 11:15 Cloudy 76 24.2 57 13.8 52 52 ENE 17 28 30.15 1021 10 16 N/A
11:35 am 11:35 Cloudy 76 24.4 57 13.9 52 52 NE 18 30 30.15 1021 10 16 N/A
11:55 am 11:55 Cloudy 76 24.7 58 14.7 54 54 ENE 18 30 30.15 1021 10 16 N/A
12:15 pm 12:15 Cloudy 78 25.4 56 13.6 48 48 ENE 20 31 30.15 1021 10 16 N/A
12:35 pm 12:35 Cloudy 78 25.5 56 13.1 46 46 NE 17 28 30.15 1021 10 16 N/A
12:55 pm 12:55 Partly Cloudy 79 26 55 12.8 44 44 NE 14 22 30.12 1020 10 16 N/A
1:15 pm 13:15 Sunny 79 26.1 55 12.9 44 44 ENE 16 26 30.12 1020 10 16 N/A
1:35 pm 13:35 Sunny 79 26 54 12 42 42 NE 13 20 30.12 1020 10 16 N/A
1:55 pm 13:55 Sunny 79 26.2 54 12 41 41 NE 14 22 30.12 1020 10 16 N/A
2:15 pm 14:15 Sunny 77 25 53 11.6 43 43 E 13 20 30.15 1021 10 16 N/A
2:35 pm 14:35 Sunny 76 24.4 55 12.7 48 48 ENE 9 15 30.15 1021 10 16 N/A
2:55 pm 14:55 Partly Cloudy with Light Rain 75 24.1 58 14.2 54 54 E 8 13 30.15 1021 10 16 N/A
3:15 pm 15:15 Partly Cloudy with Thunderstorms 80 26.7 59 14.9 48 48 E 10 17 30.12 1020 10 16 N/A
3:35 pm 15:35 Sunny 81 27.3 58 14.7 46 46 E 13 20 30.12 1020 10 16 N/A
3:55 pm 15:55 Sunny with Nearby Thunderstorms 82 27.6 60 15.3 47 47 ENE 12 19 30.09 1019 10 16 N/A
4:15 pm 16:15 Sunny 80 26.5 61 16 53 53 NE 7 11 30.12 1020 10 16 N/A
4:35 pm 16:35 Sunny 79 26.1 60 15.6 52 52 E 10 17 30.09 1019 10 16 N/A
4:55 pm 16:55 Sunny 78 25.8 59 14.8 51 51 ENE 15 24 30.06 1018 10 16 N/A
5:15 pm 17:15 Sunny 78 25.6 60 15.4 53 53 ENE 13 20 30.06 1018 10 16 N/A
5:35 pm 17:35 Sunny 80 26.9 60 15.4 49 49 ENE 14 22 30.06 1018 10 16 N/A
5:55 pm 17:55 Sunny 81 27 59 14.9 48 48 ENE 15 24 30.06 1018 10 16 N/A
6:15 pm 18:15 Sunny 81 27 59 15 48 48 ENE 13 20 30.06 1018 10 16 N/A
6:35 pm 18:35 Sunny 80 26.5 58 14.2 47 47 ENE 14 22 30.03 1017 10 16 N/A
6:55 pm 18:55 Sunny 79 26 57 14.1 48 48 ENE 12 19 30.03 1017 10 16 N/A
7:15 pm 19:15 Sunny 78 25.7 57 13.7 48 48 ENE 14 22 30.03 1017 10 16 N/A
7:35 pm 19:35 Sunny 78 25.5 56 13.3 47 47 ENE 12 19 30.03 1017 10 16 N/A
7:55 pm 19:55 Sunny 77 25 56 13.6 49 49 ENE 8 13 30.03 1017 10 16 N/A
8:15 pm 20:15 Sunny 76 24.4 55 12.9 49 49 ENE 7 11 30.06 1018 10 16 N/A
8:35 pm 20:35 Sunny 74 23.5 55 12.9 51 51 ENE 7 11 30.06 1018 10 16 N/A
8:55 pm 20:55 Sunny 73 22.5 56 13.1 55 55 E 8 13 30.06 1018 10 16 N/A
9:15 pm 21:15 Clear 71 21.7 57 13.9 61 61 E 6 9 30.06 1018 7 11 N/A
9:35 pm 21:35 Clear 70 21.3 57 14 63 63 E 5 7 30.09 1019 10 16 N/A
9:55 pm 21:55 Clear 69 20.3 58 14.7 70 70 ENE 7 11 30.09 1019 10 16 N/A
10:15 pm 22:15 Clear 69 20.5 57 13.8 66 66 ENE 7 11 30.12 1020 10 16 N/A
10:35 pm 22:35 Clear 69 20.3 56 13.6 66 66 ENE 7 11 30.12 1020 10 16 N/A
10:55 pm 22:55 Clear 68 20 57 13.8 68 68 ENE 7 11 30.12 1020 10 16 N/A
11:15 pm 23:15 Clear 67 19.6 57 13.7 69 69 ENE 7 11 30.12 1020 10 16 N/A
11:35 pm 23:35 Clear 67 19.5 57 13.7 69 69 ENE 7 11 30.12 1020 10 16 N/A
11:55 pm 23:55 Clear 66 19 57 13.8 72 72 ENE 7 11 30.12 1020 10 16 N/A

Powered by AerisWeather